Time,TemperatureF,DewpointF,PressureIn,WindDirection,WindDirectionDegrees,WindSpeedMPH,WindSpeedGustMPH,Humidity,HourlyPrecipIn,Conditions,Clouds,dailyrainin,SoftwareType,DateUTC
2013-01-14 00:15:00,61.0,40.6,29.73,SSE,157,9.0,9.0,47,0.00,,,0.00,Weather View 32 v70,2013-01-14 05:15:00,
2013-01-14 00:17:00,61.0,40.6,29.73,SSE,157,9.0,9.0,47,0.00,,,0.00,Weather View 32 v70,2013-01-14 05:17:00,
2013-01-14 00:32:00,60.0,40.2,29.74,SSE,157,6.0,9.0,48,0.00,,,0.00,Weather View 32 v70,2013-01-14 05:32:00,
2013-01-14 00:47:00,60.0,40.7,29.75,SSE,157,7.0,9.0,49,0.00,,,0.00,Weather View 32 v70,2013-01-14 05:47:00,
2013-01-14 01:02:00,60.0,40.7,29.74,SSE,157,4.0,9.0,49,0.00,,,0.00,Weather View 32 v70,2013-01-14 06:02:00,
2013-01-14 01:17:00,59.0,39.3,29.75,SSE,157,7.0,9.0,48,0.00,,,0.00,Weather View 32 v70,2013-01-14 06:17:00,
2013-01-14 01:32:00,59.0,39.3,29.75,SSE,157,4.0,9.0,48,0.00,,,0.00,Weather View 32 v70,2013-01-14 06:32:00,
2013-01-14 01:47:00,59.0,39.3,29.75,SSE,157,6.0,9.0,48,0.00,,,0.00,Weather View 32 v70,2013-01-14 06:47:00,
2013-01-14 02:02:00,58.0,38.4,29.77,WSW,247,7.0,9.0,48,0.00,,,0.00,Weather View 32 v70,2013-01-14 07:02:00,
2013-01-14 02:17:00,58.0,38.4,29.76,WSW,247,6.0,8.0,48,0.00,,,0.00,Weather View 32 v70,2013-01-14 07:17:00,
2013-01-14 02:32:00,59.0,39.3,29.75,WSW,247,6.0,8.0,48,0.00,,,0.00,Weather View 32 v70,2013-01-14 07:32:00,
2013-01-14 02:47:00,59.0,39.3,29.74,WSW,247,6.0,8.0,48,0.00,,,0.00,Weather View 32 v70,2013-01-14 07:47:00,
2013-01-14 03:02:00,60.0,39.7,29.75,SSE,157,9.0,9.0,47,0.00,,,0.00,Weather View 32 v70,2013-01-14 08:02:00,
2013-01-14 03:17:00,60.0,40.2,29.73,SSE,157,9.0,10.0,48,0.00,,,0.00,Weather View 32 v70,2013-01-14 08:17:00,
2013-01-14 03:32:00,59.0,38.2,29.72,WSW,247,6.0,10.0,46,0.00,,,0.00,Weather View 32 v70,2013-01-14 08:32:00,
2013-01-14 03:47:00,59.0,39.3,29.73,WSW,247,8.0,10.0,48,0.00,,,0.00,Weather View 32 v70,2013-01-14 08:47:00,
2013-01-14 04:02:00,59.0,39.3,29.74,WSW,247,7.0,10.0,48,0.00,,,0.00,Weather View 32 v70,2013-01-14 09:02:00,
2013-01-14 04:17:00,60.0,40.2,29.72,SSE,157,9.0,12.0,48,0.00,,,0.00,Weather View 32 v70,2013-01-14 09:17:00,
2013-01-14 04:32:00,60.0,39.7,29.70,WSW,247,10.0,12.0,47,0.00,,,0.00,Weather View 32 v70,2013-01-14 09:32:00,
2013-01-14 04:47:00,61.0,40.6,29.70,SSE,157,10.0,15.0,47,0.00,,,0.00,Weather View 32 v70,2013-01-14 09:47:00,
2013-01-14 05:02:00,61.0,40.6,29.69,SSE,157,9.0,15.0,47,0.00,,,0.00,Weather View 32 v70,2013-01-14 10:02:00,
2013-01-14 05:17:00,60.0,40.7,29.69,WSW,247,10.0,15.0,49,0.00,,,0.00,Weather View 32 v70,2013-01-14 10:17:00,
2013-01-14 05:32:00,59.0,39.3,29.73,WSW,247,7.0,15.0,48,0.00,,,0.00,Weather View 32 v70,2013-01-14 10:32:00,
2013-01-14 05:47:00,58.0,38.4,29.72,WSW,247,6.0,13.0,48,0.00,,,0.00,Weather View 32 v70,2013-01-14 10:47:00,
2013-01-14 06:02:00,59.0,39.3,29.71,SSE,157,7.0,12.0,48,0.00,,,0.00,Weather View 32 v70,2013-01-14 11:02:00,
2013-01-14 06:17:00,59.0,39.3,29.73,SSE,157,6.0,10.0,48,0.00,,,0.00,Weather View 32 v70,2013-01-14 11:17:00,
2013-01-14 06:32:00,58.0,37.8,29.73,WSW,247,4.0,10.0,47,0.00,,,0.00,Weather View 32 v70,2013-01-14 11:32:00,
2013-01-14 06:47:00,58.0,38.4,29.74,WSW,247,2.0,8.0,48,0.00,,,0.00,Weather View 32 v70,2013-01-14 11:47:00,
2013-01-14 07:02:00,58.0,37.3,29.75,WSW,247,0.0,7.0,46,0.00,,,0.00,Weather View 32 v70,2013-01-14 12:02:00,
2013-01-14 07:17:00,59.0,38.2,29.74,SSE,157,2.0,6.0,46,0.00,,,0.00,Weather View 32 v70,2013-01-14 12:17:00,
2013-01-14 07:32:00,59.0,38.2,29.74,SSE,157,0.0,5.0,46,0.00,,,0.00,Weather View 32 v70,2013-01-14 12:32:00,
2013-01-14 07:47:00,60.0,39.7,29.76,SSE,157,4.0,5.0,47,0.00,,,0.00,Weather View 32 v70,2013-01-14 12:47:00,
2013-01-14 08:02:00,60.0,39.1,29.75,SSE,157,5.0,5.0,46,0.00,,,0.00,Weather View 32 v70,2013-01-14 13:02:00,
2013-01-14 08:17:00,60.0,39.7,29.76,SSE,157,6.0,6.0,47,0.00,,,0.00,Weather View 32 v70,2013-01-14 13:17:00,
2013-01-14 08:32:00,61.0,39.5,29.77,SSE,157,5.0,7.0,45,0.00,,,0.00,Weather View 32 v70,2013-01-14 13:32:00,
2013-01-14 08:47:00,62.0,40.4,29.77,SSE,157,7.0,9.0,45,0.00,,,0.00,Weather View 32 v70,2013-01-14 13:47:00,
2013-01-14 09:02:00,62.0,39.8,29.78,WSW,247,7.0,9.0,44,0.00,,,0.00,Weather View 32 v70,2013-01-14 14:02:00,
2013-01-14 09:17:00,63.0,40.7,29.78,WSW,247,9.0,10.0,44,0.00,,,0.00,Weather View 32 v70,2013-01-14 14:17:00,
2013-01-14 09:32:00,63.0,41.3,29.77,WSW,247,10.0,11.0,45,0.00,,,0.00,Weather View 32 v70,2013-01-14 14:32:00,
2013-01-14 09:47:00,65.0,45.3,29.75,SSE,157,6.0,13.0,49,0.00,,,0.00,Weather View 32 v70,2013-01-14 14:47:00,
2013-01-14 10:02:00,63.0,44.0,29.76,WSW,247,8.0,13.0,50,0.00,,,0.00,Weather View 32 v70,2013-01-14 15:02:00,
2013-01-14 10:17:00,63.0,44.0,29.75,WSW,247,9.0,13.0,50,0.00,,,0.00,Weather View 32 v70,2013-01-14 15:17:00,
2013-01-14 10:32:00,64.0,44.9,29.77,WSW,247,7.0,13.0,50,0.00,,,0.00,Weather View 32 v70,2013-01-14 15:32:00,
2013-01-14 10:38:00,64.0,44.9,29.77,WSW,247,7.0,13.0,50,0.00,,,0.00,Weather View 32 v70,2013-01-14 15:38:00,
2013-01-14 10:47:00,66.0,48.3,29.75,WSW,247,8.0,10.0,53,0.00,,,0.00,Weather View 32 v70,2013-01-14 15:47:00,
2013-01-14 11:02:00,67.0,50.3,29.74,WSW,247,10.0,12.0,55,0.00,,,0.00,Weather View 32 v70,2013-01-14 16:02:00,
2013-01-14 11:17:00,69.0,53.1,29.73,WSW,247,10.0,17.0,57,0.00,,,0.00,Weather View 32 v70,2013-01-14 16:17:00,
2013-01-14 11:32:00,71.0,56.4,29.68,WSW,247,10.0,20.0,60,0.00,,,0.00,Weather View 32 v70,2013-01-14 16:32:00,
2013-01-14 11:38:00,71.0,56.4,29.68,WSW,247,10.0,20.0,60,0.00,,,0.00,Weather View 32 v70,2013-01-14 16:38:00,
2013-01-14 11:47:00,69.0,55.0,29.71,WSW,247,9.0,20.0,61,0.00,,,0.00,Weather View 32 v70,2013-01-14 16:47:00,
2013-01-14 12:02:00,70.0,56.3,29.69,SSE,157,10.0,20.0,62,0.00,,,0.00,Weather View 32 v70,2013-01-14 17:02:00,
2013-01-14 12:17:00,68.0,54.9,29.69,SSE,157,8.0,20.0,63,0.00,,,0.00,Weather View 32 v70,2013-01-14 17:17:00,
2013-01-14 12:39:00,71.0,57.7,29.69,WSW,247,5.0,17.0,63,0.00,,,0.00,Weather View 32 v70,2013-01-14 17:39:00,
2013-01-14 12:47:00,72.0,59.1,29.67,SSE,157,9.0,17.0,64,0.00,,,0.00,Weather View 32 v70,2013-01-14 17:47:00,
2013-01-14 13:02:00,72.0,59.6,29.67,SSE,157,13.0,17.0,65,0.00,,,0.00,Weather View 32 v70,2013-01-14 18:02:00,
2013-01-14 13:17:00,72.0,59.6,29.67,SSE,157,10.0,19.0,65,0.00,,,0.00,Weather View 32 v70,2013-01-14 18:17:00,
2013-01-14 13:32:00,72.0,60.0,29.65,SSE,157,15.0,21.0,66,0.00,,,0.00,Weather View 32 v70,2013-01-14 18:32:00,
2013-01-14 13:39:00,72.0,60.0,29.65,SSE,157,15.0,21.0,66,0.00,,,0.00,Weather View 32 v70,2013-01-14 18:39:00,
2013-01-14 13:47:00,73.0,60.9,29.65,WSW,247,18.0,25.0,66,0.00,,,0.00,Weather View 32 v70,2013-01-14 18:47:00,
2013-01-14 14:02:00,73.0,61.4,29.63,WSW,247,19.0,25.0,67,0.00,,,0.00,Weather View 32 v70,2013-01-14 19:02:00,
2013-01-14 14:17:00,73.0,61.8,29.63,SSE,157,5.0,25.0,68,0.00,,,0.00,Weather View 32 v70,2013-01-14 19:17:00,
2013-01-14 14:30:00,72.0,60.8,29.67,SSE,157,11.0,25.0,68,0.00,,,0.00,Weather View 32 v70,2013-01-14 19:30:00,
2013-01-14 14:32:00,72.0,60.8,29.67,SSE,157,11.0,25.0,68,0.00,,,0.00,Weather View 32 v70,2013-01-14 19:32:00,
2013-01-14 14:47:00,72.0,60.8,29.68,SSE,157,7.0,23.0,68,0.00,,,0.00,Weather View 32 v70,2013-01-14 19:47:00,
2013-01-14 15:02:00,70.0,59.3,29.67,SSE,157,5.0,23.0,69,0.00,,,0.00,Weather View 32 v70,2013-01-14 20:02:00,
2013-01-14 15:17:00,68.0,56.6,29.67,SSE,157,5.0,16.0,67,0.00,,,0.00,Weather View 32 v70,2013-01-14 20:17:00,
2013-01-14 15:30:00,68.0,56.2,29.69,SSE,157,7.0,16.0,66,0.00,,,0.00,Weather View 32 v70,2013-01-14 20:30:00,
2013-01-14 15:32:00,68.0,56.2,29.69,SSE,157,7.0,16.0,66,0.00,,,0.00,Weather View 32 v70,2013-01-14 20:32:00,
2013-01-14 15:47:00,67.0,54.8,29.69,WSW,247,6.0,16.0,65,0.00,,,0.00,Weather View 32 v70,2013-01-14 20:47:00,
2013-01-14 16:02:00,67.0,54.4,29.69,SSE,157,10.0,16.0,64,0.00,,,0.00,Weather View 32 v70,2013-01-14 21:02:00,
2013-01-14 16:17:00,66.0,53.4,29.69,SSE,157,13.0,17.0,64,0.00,,,0.00,Weather View 32 v70,2013-01-14 21:17:00,
2013-01-14 16:30:00,62.0,47.9,29.73,SSE,157,7.0,17.0,60,0.00,,,0.00,Weather View 32 v70,2013-01-14 21:30:00,
2013-01-14 16:32:00,62.0,47.9,29.73,SSE,157,7.0,17.0,60,0.00,,,0.00,Weather View 32 v70,2013-01-14 21:32:00,
2013-01-14 16:47:00,62.0,46.6,29.73,SSE,157,13.0,17.0,57,0.00,,,0.00,Weather View 32 v70,2013-01-14 21:47:00,
2013-01-14 17:02:00,62.0,46.1,29.73,SSE,157,13.0,17.0,56,0.00,,,0.00,Weather View 32 v70,2013-01-14 22:02:00,
2013-01-14 17:17:00,62.0,45.1,29.73,SSE,157,10.0,17.0,54,0.00,,,0.00,Weather View 32 v70,2013-01-14 22:17:00,
2013-01-14 17:30:00,62.0,45.1,29.75,WSW,247,9.0,17.0,54,0.00,,,0.00,Weather View 32 v70,2013-01-14 22:30:00,
2013-01-14 17:32:00,62.0,45.1,29.75,WSW,247,9.0,17.0,54,0.00,,,0.00,Weather View 32 v70,2013-01-14 22:32:00,
2013-01-14 17:47:00,61.0,44.2,29.75,WSW,247,6.0,16.0,54,0.00,,,0.00,Weather View 32 v70,2013-01-14 22:47:00,
2013-01-14 18:02:00,60.0,42.3,29.75,WSW,247,10.0,16.0,52,0.00,,,0.00,Weather View 32 v70,2013-01-14 23:02:00,
2013-01-14 18:17:00,61.0,43.2,29.76,WSW,247,7.0,13.0,52,0.00,,,0.00,Weather View 32 v70,2013-01-14 23:17:00,
2013-01-14 18:30:00,60.0,42.3,29.76,WSW,247,7.0,13.0,52,0.00,,,0.00,Weather View 32 v70,2013-01-14 23:30:00,
2013-01-14 18:32:00,60.0,42.3,29.76,WSW,247,7.0,13.0,52,0.00,,,0.00,Weather View 32 v70,2013-01-14 23:32:00,
2013-01-14 18:47:00,60.0,42.3,29.75,SSE,157,6.0,13.0,52,0.00,,,0.00,Weather View 32 v70,2013-01-14 23:47:00,
2013-01-14 19:02:00,60.0,42.3,29.75,SSE,157,6.0,11.0,52,0.00,,,0.00,Weather View 32 v70,2013-01-15 00:02:00,
2013-01-14 19:17:00,60.0,42.3,29.74,WSW,247,9.0,9.0,52,0.00,,,0.00,Weather View 32 v70,2013-01-15 00:17:00,
2013-01-14 19:30:00,60.0,41.8,29.74,SSE,157,7.0,9.0,51,0.00,,,0.00,Weather View 32 v70,2013-01-15 00:30:00,
2013-01-14 19:32:00,60.0,41.8,29.74,SSE,157,7.0,9.0,51,0.00,,,0.00,Weather View 32 v70,2013-01-15 00:32:00,
2013-01-14 19:47:00,60.0,42.8,29.75,SSE,157,10.0,13.0,53,0.00,,,0.00,Weather View 32 v70,2013-01-15 00:47:00,
2013-01-14 20:02:00,60.0,42.3,29.74,SSE,157,9.0,13.0,52,0.00,,,0.00,Weather View 32 v70,2013-01-15 01:02:00,
2013-01-14 20:17:00,60.0,42.8,29.75,SSE,157,8.0,13.0,53,0.00,,,0.00,Weather View 32 v70,2013-01-15 01:17:00,
2013-01-14 20:30:00,60.0,42.8,29.76,WSW,247,7.0,13.0,53,0.00,,,0.00,Weather View 32 v70,2013-01-15 01:30:00,
2013-01-14 20:32:00,60.0,42.8,29.76,WSW,247,7.0,13.0,53,0.00,,,0.00,Weather View 32 v70,2013-01-15 01:32:00,
2013-01-14 20:47:00,59.0,41.4,29.75,WSW,247,6.0,12.0,52,0.00,,,0.00,Weather View 32 v70,2013-01-15 01:47:00,
2013-01-14 21:02:00,59.0,40.9,29.75,WSW,247,7.0,10.0,51,0.00,,,0.00,Weather View 32 v70,2013-01-15 02:02:00,
2013-01-14 21:17:00,60.0,42.3,29.74,WSW,247,7.0,9.0,52,0.00,,,0.00,Weather View 32 v70,2013-01-15 02:17:00,
2013-01-14 21:30:00,60.0,42.3,29.74,WSW,247,6.0,9.0,52,0.00,,,0.00,Weather View 32 v70,2013-01-15 02:30:00,
2013-01-14 21:32:00,60.0,42.3,29.74,WSW,247,6.0,9.0,52,0.00,,,0.00,Weather View 32 v70,2013-01-15 02:32:00,
2013-01-14 21:47:00,60.0,42.3,29.73,WSW,247,7.0,9.0,52,0.00,,,0.00,Weather View 32 v70,2013-01-15 02:47:00,
2013-01-14 22:02:00,60.0,42.3,29.75,WSW,247,8.0,9.0,52,0.00,,,0.00,Weather View 32 v70,2013-01-15 03:02:00,
2013-01-14 22:17:00,62.0,44.6,29.75,WSW,247,8.0,9.0,53,0.00,,,0.00,Weather View 32 v70,2013-01-15 03:17:00,
2013-01-14 22:30:00,61.0,43.7,29.74,WSW,247,7.0,10.0,53,0.00,,,0.00,Weather View 32 v70,2013-01-15 03:30:00,
2013-01-14 22:32:00,61.0,43.7,29.74,WSW,247,7.0,10.0,53,0.00,,,0.00,Weather View 32 v70,2013-01-15 03:32:00,
2013-01-14 22:47:00,61.0,43.7,29.74,WSW,247,9.0,10.0,53,0.00,,,0.00,Weather View 32 v70,2013-01-15 03:47:00,
2013-01-14 23:02:00,61.0,43.7,29.74,WSW,247,7.0,10.0,53,0.00,,,0.00,Weather View 32 v70,2013-01-15 04:02:00,
2013-01-14 23:17:00,61.0,43.7,29.73,WSW,247,6.0,10.0,53,0.00,,,0.00,Weather View 32 v70,2013-01-15 04:17:00,
2013-01-14 23:30:00,61.0,44.2,29.73,WSW,247,6.0,10.0,54,0.00,,,0.00,Weather View 32 v70,2013-01-15 04:30:00,
2013-01-14 23:32:00,61.0,44.2,29.73,WSW,247,6.0,10.0,54,0.00,,,0.00,Weather View 32 v70,2013-01-15 04:32:00,
2013-01-14 23:47:00,61.0,44.2,29.75,WSW,247,7.0,10.0,54,0.00,,,0.00,Weather View 32 v70,2013-01-15 04:47:00,